Tracking 32523 objects as of 12-Dec-2025
HD Live streaming from Space Station
objects crossing your sky now

TIANQI 18

Track TIANQI 18 now!
10-day predictions


NORAD ID: 64060
Int'l Code: 2025-105C
Perigee: 896.5 km
Apogee: 911.9 km
Inclination: 45.0 °
Period: 102.9 minutes
Semi major axis: 7275 km
RCS: Unknown
Launch date: May 19, 2025
Source: People's Republic of China (PRC)
Launch site: Yellow Sea Launch Area, China (YSLA)
Your satellite tracking list
Your tracking list is empty




NASA's NSSDC Master Catalog

Two Line Element Set (TLE):
1 64060U 25105C   25346.23508048  .00000078  00000-0  14186-3 0  9997
2 64060  44.9832 133.9078 0010566 225.0119 134.9858 13.99047576 29018
Source of the keplerian elements: AFSPC